Theta_e
329 318 318 311 299 296 293 297 302 306 309 314 313 309 308 311 309 303 326 331 334 337 340 341 344 345 344 342 341 339 337 336 336 336 335 334 334 334 333 333 333 333 333 334 334 333 333 333 333
324 318 313 303 295 289 290 296 299 307 314 318 319 317 314 309 319 325 327 333 336 338 340 340 342 343 341 340 339 338 336 336 335 335 335 334 334 333 333 332 332 332 332 333 333 334 333 333 334
316 316 306 300 293 289 291 296 301 308 318 314 314 317 315 314 320 326 329 334 337 338 339 339 341 342 340 338 338 338 337 335 335 335 334 333 333 332 331 331 331 332 333 333 334 334 334 335 335
310 309 304 296 292 296 295 298 301 313 314 318 315 311 315 323 325 327 333 335 336 336 337 338 340 341 339 339 338 337 336 335 334 334 333 333 333 333 333 333 333 334 333 333 335 335 335 335 336
308 304 296 292 293 297 297 301 302 305 311 314 314 312 310 324 328 330 333 335 334 335 335 335 338 338 339 339 337 338 336 334 334 333 333 333 333 333 333 333 334 335 335 335 335 335 335 336 336
303 301 293 292 294 299 299 301 300 308 312 314 314 310 313 324 327 329 333 333 335 333 334 335 333 336 337 337 337 337 336 334 333 333 333 333 333 333 334 334 334 335 336 336 335 335 335 335 335
300 296 292 293 294 297 301 302 301 304 311 314 318 312 317 323 327 329 329 331 334 334 334 334 334 333 332 334 334 335 335 335 334 334 334 334 334 334 333 332 333 334 335 335 335 334 336 337 335
303 298 293 294 295 296 304 301 303 304 311 320 320 310 313 322 328 327 329 329 330 333 333 332 333 333 331 330 330 331 333 334 334 333 332 330 330 330 329 328 333 334 334 334 334 336 336 336 334
304 294 292 295 296 298 303 302 304 317 315 319 321 317 319 326 327 325 326 327 329 331 332 332 332 331 328 327 326 327 329 330 329 328 326 324 327 326 329 327 331 334 336 336 337 335 333 332 330
301 294 296 300 301 300 303 303 302 306 311 314 315 319 321 324 324 323 323 322 323 325 330 332 332 330 328 329 324 325 326 325 325 325 327 331 330 329 329 323 323 326 330 334 331 321 319 318 318
300 298 302 301 304 305 304 302 305 304 302 313 315 316 318 322 322 322 322 323 323 325 328 329 329 329 326 325 323 323 323 324 324 325 328 329 328 327 319 315 315 317 315 311 309 306 306 308 315
298 302 302 304 306 305 303 304 302 304 305 314 319 318 318 320 321 321 321 322 323 325 326 327 326 326 326 324 323 322 324 321 319 324 329 326 320 314 309 307 307 309 309 305 302 301 301 305 316
297 300 304 308 308 306 306 303 302 303 309 313 319 319 316 320 321 322 323 324 325 324 326 325 325 324 325 323 322 321 322 317 317 320 323 321 314 310 305 305 305 303 301 300 299 298 298 302 312
298 300 300 302 305 308 304 305 303 307 311 316 318 317 315 317 320 320 321 322 323 325 325 324 323 324 324 322 320 315 313 312 314 315 316 316 311 306 304 303 303 301 299 298 297 295 296 299 307
298 293 295 297 300 303 306 301 302 306 316 315 316 317 315 315 317 318 320 321 323 323 323 322 324 325 322 319 315 311 310 309 308 308 309 308 306 304 303 302 300 298 298 297 294 294 295 297 302
292 291 285 293 297 302 302 293 302 309 315 313 314 315 313 312 315 318 319 320 320 320 321 322 325 322 319 315 311 306 305 304 304 305 305 305 304 302 299 298 297 297 296 294 293 292 292 294 297
287 282 283 286 297 297 299 293 300 307 311 310 315 315 311 312 315 315 317 317 318 321 321 320 318 315 312 308 304 302 302 301 302 302 302 301 299 298 298 295 295 295 295 294 292 291 291 292 296
276 279 283 284 292 296 294 294 297 301 304 307 310 315 312 312 313 315 316 317 318 320 320 317 315 310 309 305 301 300 299 298 300 300 300 299 298 296 295 294 294 294 293 292 291 290 290 290 294
286 284 283 286 291 291 290 293 295 299 301 300 303 309 313 311 316 315 316 316 317 317 316 314 309 307 306 302 300 300 297 297 297 298 297 298 297 295 294 293 292 292 291 291 291 290 289 289 289
284 281 281 285 289 290 289 288 292 296 298 300 301 299 313 312 306 310 313 313 315 316 313 310 310 306 306 305 303 300 298 297 296 297 297 296 296 293 293 292 291 290 290 289 289 290 288 287 287
282 281 281 282 286 290 289 285 288 292 297 299 302 302 303 311 305 307 309 312 315 315 311 309 308 307 307 305 300 297 296 295 294 294 294 295 294 293 292 292 291 290 289 288 287 287 287 285 285
278 285 285 284 282 277 288 277 284 290 292 296 299 300 299 310 308 309 310 310 314 315 313 309 307 307 305 301 300 297 296 293 293 293 293 292 292 291 292 291 290 289 289 287 287 287 285 285 283
281 286 285 285 282 280 282 279 280 290 290 294 297 300 301 307 308 308 308 309 313 312 311 308 308 306 303 302 301 299 296 293 292 292 291 291 291 291 290 290 289 288 287 286 285 284 284 284 283
286 285 284 285 283 274 281 280 278 284 289 292 297 299 301 304 305 308 309 309 305 305 304 305 303 301 301 301 300 297 293 292 290 290 289 289 289 288 288 288 287 287 286 285 284 283 283 283 282
284 280 272 271 274 273 281 279 281 287 292 294 296 297 301 302 302 303 302 301 301 301 301 301 301 299 300 299 297 296 293 292 290 290 289 288 287 287 286 286 286 286 285 285 284 283 282 281 280
282 282 274 269 270 273 280 277 281 290 294 296 299 299 300 301 301 300 299 301 300 300 300 300 299 298 298 297 296 295 294 293 292 290 289 288 287 287 287 285 286 285 285 284 284 282 282 281 280
280 279 285 278 271 274 272 281 288 291 294 296 297 298 299 300 300 298 298 298 300 299 299 299 298 297 297 295 295 294 294 293 291 291 290 289 287 287 286 286 285 284 284 283 282 281 281 281 281
283 287 278 280 265 265 275 278 280 287 289 296 296 296 296 297 296 295 295 295 296 297 297 298 298 297 296 296 295 294 293 292 291 290 288 287 287 287 286 285 284 283 283 282 281 281 281 280 280
279 278 281 280 280 273 273 277 286 285 286 287 297 296 294 293 293 293 293 294 294 295 295 295 295 294 293 293 293 292 291 291 290 289 288 288 287 286 286 285 284 283 282 282 281 281 280 280 280
284 279 281 276 275 278 279 278 290 287 286 288 295 296 295 294 293 293 291 291 292 292 293 293 293 292 292 292 291 291 290 290 289 288 287 287 286 286 285 285 284 282 281 281 280 279 280 279 279
Wind_Speed
9 6 1 6 5 5 5 7 5 0 1 1 5 5 11 1 9 7 4 6 15 12 12 13 18 18 17 17 17 16 16 15 15 14 13 12 12 11 10 9 9 9 9 10 10 10 10 10 10
5 2 5 3 5 2 6 5 7 3 3 3 7 3 2 3 2 7 8 11 16 12 10 11 16 17 17 16 16 15 15 15 15 14 13 12 11 10 9 9 9 8 9 9 9 10 9 9 9
1 3 4 4 4 7 6 4 5 5 9 1 2 4 4 5 3 14 6 15 15 12 10 11 16 16 17 16 16 15 14 14 14 13 12 11 10 9 9 8 8 8 9 8 8 8 8 8 9
3 5 4 3 6 7 8 5 3 5 3 1 3 5 2 4 12 7 14 16 15 13 11 14 16 17 17 17 16 16 15 14 13 12 11 10 9 8 7 6 6 6 7 8 7 7 7 7 8
4 3 1 3 6 6 4 4 5 4 4 0 1 5 3 5 7 16 15 13 15 13 12 12 17 18 18 17 17 16 15 14 13 12 11 9 8 7 6 6 5 5 5 6 6 6 6 7 9
3 2 2 7 8 5 4 5 3 4 4 2 2 5 5 5 14 15 15 11 12 14 11 11 13 15 17 16 16 15 15 14 13 12 10 9 8 7 6 5 4 4 5 6 6 6 4 5 8
4 3 5 5 5 7 5 5 3 5 5 6 7 4 2 9 13 15 14 10 11 12 12 9 10 11 11 12 13 13 13 13 12 11 10 8 7 6 5 3 3 4 4 6 5 4 5 7 11
4 3 5 6 7 10 4 3 3 1 6 3 7 7 6 10 15 13 11 12 12 10 10 11 10 9 7 7 10 10 10 10 9 9 7 6 5 4 4 3 2 3 2 4 4 4 7 10 12
4 2 7 8 7 8 4 4 3 1 3 3 3 4 4 18 17 14 12 12 12 12 11 9 12 10 8 7 7 9 9 8 7 6 6 5 3 4 3 3 4 4 4 4 8 8 7 9 11
6 5 8 6 6 6 9 7 3 1 3 3 2 3 13 21 21 20 21 19 18 19 16 12 12 11 10 7 7 6 5 4 3 3 5 3 4 4 5 5 6 6 5 9 11 11 10 8 4
5 11 6 4 8 8 15 4 4 5 7 8 9 9 16 22 20 20 17 18 19 19 13 13 13 12 11 7 5 3 3 3 3 2 4 5 5 4 3 3 3 3 7 4 6 5 5 6 5
7 5 4 6 5 3 8 0 5 9 9 7 10 18 22 22 24 23 20 19 19 21 18 12 12 12 10 7 5 4 4 3 3 3 3 5 4 4 4 3 3 3 3 5 4 4 5 6 7
5 6 9 11 12 5 9 8 9 11 9 9 7 17 22 24 23 18 18 16 17 19 19 15 13 11 10 9 4 4 4 3 3 2 4 5 5 5 4 4 3 3 4 4 4 4 4 5 7
7 11 13 11 12 12 9 17 6 3 6 7 11 19 23 23 21 18 19 19 21 18 18 17 14 12 9 8 7 4 4 4 3 3 4 5 5 5 4 4 4 4 4 4 4 4 4 5 6
6 13 14 12 9 11 5 24 34 7 9 10 12 16 21 20 16 19 19 22 22 18 18 17 15 10 10 10 7 5 4 5 4 4 5 6 5 5 6 4 4 4 3 5 5 5 5 5 6
5 5 6 3 9 8 9 40 17 6 10 11 13 11 15 11 17 14 13 14 15 16 18 15 13 12 12 9 8 5 4 4 4 5 5 7 7 6 6 5 4 4 4 4 4 4 5 5 6
4 10 10 10 9 7 17 32 11 5 8 9 14 14 14 12 14 11 13 12 16 16 17 16 15 14 13 10 7 6 7 5 4 5 5 7 6 6 6 4 4 4 4 4 4 5 3 4 6
5 9 9 11 3 7 17 28 10 6 4 8 12 16 18 18 21 17 18 16 14 14 14 16 13 15 14 10 8 6 6 4 5 4 5 6 6 6 6 5 5 4 5 5 5 6 6 4 5
12 18 24 17 15 13 18 21 13 13 16 11 6 13 19 21 18 12 16 16 15 15 14 16 17 15 13 10 9 6 5 4 5 4 6 6 6 6 6 5 5 4 5 4 4 4 6 5 3
13 17 19 15 15 14 18 25 18 16 16 15 14 8 21 20 13 13 15 15 16 16 14 13 16 17 12 11 7 5 7 4 5 4 5 5 7 5 6 6 5 5 5 5 5 3 3 3 4
14 13 16 18 15 19 19 26 19 17 21 15 16 11 15 25 22 19 17 18 16 17 16 16 15 16 13 12 11 9 8 6 4 5 4 4 6 5 7 6 6 5 4 5 4 4 5 4 4
15 12 18 17 10 14 10 17 7 6 19 21 19 14 4 19 24 23 25 16 17 17 16 16 16 14 11 14 12 18 10 9 4 6 6 5 5 6 7 7 6 5 4 5 4 4 4 4 4
11 10 14 17 14 11 16 9 6 5 10 20 22 20 7 12 20 23 23 23 20 15 16 15 16 14 14 13 12 10 11 9 8 7 9 9 7 6 5 7 6 7 5 5 6 6 7 4 4
11 12 14 16 9 11 24 15 8 10 17 15 16 15 11 6 12 19 22 19 13 13 13 15 15 14 13 13 13 11 14 15 12 9 7 5 5 4 5 7 6 6 5 6 5 6 7 6 5
1 5 6 4 5 8 4 9 17 12 17 19 21 17 16 12 10 8 13 18 14 16 14 13 15 13 14 14 13 14 16 12 16 11 9 8 4 3 5 5 5 5 6 6 5 6 5 5 5
9 4 6 7 5 10 9 6 8 9 8 13 16 19 16 15 13 12 11 16 19 16 15 15 16 13 13 14 13 15 16 10 11 8 10 8 6 5 4 5 5 5 6 6 5 4 4 5 5
4 4 4 9 6 7 4 7 9 7 5 5 11 13 17 16 17 19 14 7 9 18 17 17 17 15 12 13 12 12 10 13 13 9 8 9 6 5 6 6 5 5 6 5 5 4 4 5 4
7 3 6 5 4 6 5 6 5 10 10 6 7 11 9 9 9 12 13 9 9 11 15 14 16 18 15 14 10 9 9 10 13 11 10 10 7 7 7 6 5 5 5 5 5 4 4 5 3
4 3 3 3 7 3 7 4 2 9 12 17 10 13 13 13 11 10 10 11 5 11 13 16 14 17 15 14 10 11 7 7 9 10 8 10 8 7 7 6 6 5 5 5 5 5 5 5 4
1 4 2 3 8 4 3 7 7 10 12 15 3 5 10 11 13 14 14 15 8 10 11 15 14 14 12 16 14 12 10 5 8 9 8 8 8 6 7 6 5 5 5 5 5 4 4 4 3
Wind_Direction
321 311 39 44 53 59 281 267 282 285 2 210 125 165 180 81 163 206 138 144 135 143 151 155 151 146 144 138 134 132 129 128 127 124 122 120 117 112 109 99 93 91 85 82 77 74 68 62 57
312 282 33 92 106 95 267 268 278 270 124 92 71 67 109 170 69 127 130 149 137 138 150 151 145 145 145 141 137 135 135 134 131 130 128 123 116 106 103 101 95 88 83 77 75 72 70 67 62
290 15 89 127 154 183 220 224 247 310 159 159 93 23 144 174 122 150 145 144 135 135 138 142 140 143 143 142 138 136 139 137 134 131 126 123 121 117 112 107 102 94 84 81 78 77 72 61 55
52 11 33 113 218 249 207 229 325 6 306 91 113 94 49 223 151 152 142 140 136 136 136 138 143 145 145 143 141 142 143 139 134 132 130 126 124 120 117 106 92 79 80 79 68 65 59 53 51
25 70 189 219 243 261 259 275 296 279 249 129 18 190 9 134 124 135 141 147 143 139 138 141 147 147 146 147 147 145 143 140 139 137 136 137 136 134 127 115 104 97 84 74 68 62 58 56 59
22 84 146 228 242 246 265 261 276 226 194 135 87 144 179 130 135 148 144 153 146 141 140 146 146 146 149 148 148 146 145 146 146 145 148 149 143 133 123 106 82 67 69 74 68 60 54 72 79
159 127 214 219 245 272 229 220 213 275 219 205 143 149 140 163 157 152 139 127 145 144 139 140 144 144 144 149 146 148 148 149 151 155 158 156 147 141 128 114 94 87 78 79 78 61 49 56 90
141 149 206 210 220 259 232 231 293 279 255 100 129 209 185 185 159 140 130 129 141 150 146 148 144 142 138 140 139 141 146 154 160 164 163 150 151 137 117 92 81 81 101 117 104 72 77 71 89
128 223 225 216 193 243 196 224 261 222 140 302 172 192 252 141 151 141 148 146 152 159 159 156 150 150 141 137 149 150 154 160 162 171 178 166 176 158 135 85 91 49 101 146 106 85 76 84 89
182 215 228 193 209 235 255 212 200 262 206 235 311 298 137 152 161 162 170 167 166 172 167 160 156 155 148 151 149 151 149 141 158 209 216 179 123 140 108 85 70 50 65 69 81 69 62 58 69
234 248 246 231 229 234 264 231 229 220 254 213 209 166 169 164 172 170 176 175 167 171 174 167 160 158 151 150 157 152 150 152 142 172 180 121 103 94 90 75 44 35 50 53 53 49 47 60 77
279 262 259 254 236 261 271 277 269 227 243 234 226 174 177 179 176 175 178 175 166 170 174 171 163 160 162 149 163 151 145 144 144 144 121 120 102 99 92 79 54 47 40 69 55 51 48 59 78
275 283 291 298 288 264 286 269 248 249 262 267 200 174 187 193 187 176 170 167 163 173 169 170 168 164 163 151 145 139 144 133 128 134 109 120 120 118 109 87 72 68 63 68 63 59 58 69 84
316 309 292 289 296 285 285 286 234 117 217 230 181 184 191 197 193 178 168 172 169 170 169 164 168 165 154 146 144 136 127 129 120 108 103 112 117 119 103 93 75 66 58 64 74 69 64 72 87
276 302 297 268 252 256 350 271 249 190 186 205 204 199 192 196 187 191 184 175 169 167 161 165 161 148 146 142 132 129 132 118 120 106 85 89 90 98 106 98 89 84 83 85 70 59 61 75 83
318 267 279 19 214 214 145 257 273 199 188 206 201 192 194 191 193 193 184 179 171 160 160 162 149 144 140 142 132 120 113 105 105 95 96 95 99 103 99 99 88 89 75 77 73 71 73 78 92
227 271 277 298 256 241 211 264 255 212 208 221 218 195 201 188 192 185 171 178 169 166 152 143 142 141 132 120 114 109 103 91 89 93 95 103 97 95 105 105 102 96 84 66 70 54 69 77 89
273 286 282 275 306 292 244 259 263 273 289 243 228 211 200 196 196 187 174 163 171 160 150 142 140 135 131 128 116 98 90 88 86 84 94 103 104 104 106 99 95 90 86 75 67 83 59 67 89
281 280 279 278 282 282 271 272 276 268 254 252 245 268 212 201 194 185 186 165 171 150 148 150 142 144 142 139 135 127 131 120 102 95 96 106 105 101 100 93 89 81 91 103 92 88 81 53 46
259 265 273 283 259 252 260 274 277 274 255 249 241 323 233 199 174 174 176 166 181 157 153 151 153 152 158 153 144 125 140 114 107 102 90 92 102 101 100 101 92 90 96 83 87 102 110 84 14
259 256 266 264 286 269 268 264 261 257 241 237 225 224 299 193 179 174 172 171 173 166 162 157 160 161 159 146 122 112 103 108 115 116 101 85 90 92 95 92 97 88 88 87 80 100 118 126 37
274 249 251 260 276 275 201 273 241 237 240 237 231 207 302 241 188 177 168 173 176 171 164 160 161 165 157 151 147 157 158 156 145 130 116 99 81 83 90 93 87 89 80 83 76 67 86 101 118
256 274 255 254 260 283 251 252 260 172 244 241 230 230 201 222 202 186 174 175 177 161 160 160 158 158 158 158 158 156 144 123 118 113 110 102 88 80 85 91 91 85 78 77 80 70 70 67 101
253 283 283 269 246 264 268 216 245 226 221 230 223 216 194 176 234 199 180 162 160 144 147 151 152 150 151 145 142 139 135 132 129 120 115 102 92 96 85 92 90 90 94 85 83 77 80 86 83
152 313 286 276 227 246 307 229 241 250 228 207 195 190 162 170 177 230 186 159 163 150 149 144 149 151 148 142 135 136 133 142 125 131 125 122 115 125 104 102 112 107 102 97 92 89 86 87 94
292 198 269 299 304 304 296 251 258 266 278 223 193 197 178 176 180 179 224 170 162 153 152 149 145 134 138 135 143 142 141 130 125 159 138 134 137 131 121 113 107 117 106 99 101 94 99 93 87
279 232 199 277 219 265 236 282 299 224 261 213 184 187 197 195 182 172 161 225 179 154 155 150 139 133 131 128 134 128 136 138 129 133 117 117 120 126 140 118 133 113 105 118 111 110 103 100 96
205 299 318 269 304 278 254 265 257 318 345 274 182 178 180 163 176 146 141 146 161 146 133 138 137 133 128 126 129 116 140 128 126 134 144 118 133 141 132 136 130 119 128 128 118 113 118 109 99
326 312 268 285 257 293 317 299 295 287 306 300 209 191 171 160 157 144 130 118 135 128 128 130 127 122 124 116 111 112 122 120 125 121 118 133 145 148 138 147 132 140 147 147 130 132 128 116 119
240 218 246 278 299 284 248 280 335 319 288 284 272 129 153 151 156 143 127 115 142 125 129 121 125 119 137 117 118 113 103 116 114 122 142 141 139 149 138 145 150 158 158 155 146 149 140 155 164